LARES-2

Last updated on Tue Aug 25 2026 00:03:35 GMT+0000 (Coordinated Universal Time)

1 53105U 22080A 26236.09776667 .00000011 00000+0 00000+0 0 9993 2 53105 70.1493 282.0330 0005528 320.5254 39.5191 6.38965242 96007
UTC large
Height (km)
Speed (km/s)
/
Latitude / Longitude
Inclination (degrees)
Orbital Period (minutes)
Azimuth
Elevation
Range (km)
Doppler Factor

Next 0 passes for location: London (51.5072 / 0.1276)

No passes found over London.
LARES-2